Tracking 19288 objects as of 20-Nov-2018
HD Live streaming from Space Station
objects crossing your sky now

TANSEI 3 (MS-T3)

Track TANSEI 3 (MS-T3) now!
10-day predictions
TANSEI 3 (MS-T3) is classified as:


NORAD ID: 9841
Int'l Code: 1977-012A
Perigee: 802.4 km
Apogee: 3,812.7 km
Inclination: 65.8 °
Period: 134.1 minutes
Semi major axis: 8678 km
RCS: 1.5301 m2 (large)
Launch date: February 19, 1977
Source: Japan (JPN)
Launch site: KAGOSHIMA SPACE CENTER UNIVERSITY OF TOKYO (KSCUT)
aabbcc
Your satellite tracking list
Your tracking list is empty




NASA's NSSDC Master Catalog

Two Line Element Set (TLE):
1  9841U 77012A   18324.18408083 -.00000019  00000-0  52846-4 0  9999
2  9841  65.7574 333.1046 1734361 323.7724  25.7018 10.73818131636912
Source of the keplerian elements: AFSPC